Flag for U.S.A. Weather past 2 weeks in Augusta, Maine, U.S.A.

Now
63 °F

Clear.


Feels Like: 63 °F
Forecast: 65 / 83 °F
Wind: No wind

Location: Augusta State Airport

Current Time: Aug 27, 2014 at 5:35:21 AM

Latest Report: Aug 27, 2014 at 4:53 AM


Visibility: 10 mi

Pressure: 29.92 "Hg

Humidity: 93%

Dew point: 61 °F

Location of AugustaLocation

Historic Weather in Augusta — Graph

°F

Augusta temperature yesterday

Maximum temperature yesterday: 83 °F (at 1:53 PM)
Minimum temperature yesterday: 60 °F (at 5:53 AM)
Average temperature yesterday: 70 °F

Past Weeks' High & Low Weather Summary

 TemperatureHumidityPressure
High86 °F (Aug 25, 2:53 PM)100% (Aug 12, 3:53 AM)30.16 "Hg (Aug 12, 3:53 AM)
Low50 °F (Aug 19, 5:53 AM)39% (Aug 25, 3:53 PM)29.60 "Hg (Aug 14, 4:53 AM)
Average66 °F78%29.98 "Hg
* Reported Aug 12 3:53 AM — Aug 27 3:53 AM, Augusta, Weather by CustomWeather, © 2014

Note: Actual official high and low records may vary slightly from our data, if they occured in-between our weather recording intervals... More about our weather records

Advertising

Augusta weather history for previous 24 hours

 ConditionsComfort  
Time TempWeatherWind HumidityBarometerVisibility
3:53 AM
Aug 27
63 °FClear.No wind93%29.93 "Hg10 mi
2:53 AM63 °FClear.3 mph93%29.94 "Hg10 mi
1:53 AM63 °FClear.5 mph97%29.95 "Hg10 mi
12:53 AM63 °FClear.6 mph97%29.96 "Hg10 mi
11:53 PM
Aug 26
64 °FClear.6 mph90%29.98 "Hg10 mi
10:53 PM64 °FClear.6 mph90%29.99 "Hg10 mi
9:53 PM66 °FClear.8 mph81%29.99 "Hg10 mi
8:53 PM67 °FClear.7 mph79%30.01 "Hg10 mi
7:53 PM69 °FSunny.9 mph76%30.01 "Hg10 mi
6:53 PM73 °FSunny.8 mph71%30.02 "Hg10 mi
5:53 PM77 °FSunny.9 mph64%30.02 "Hg10 mi
4:53 PM80 °FSunny.9 mph60%30.03 "Hg10 mi
3:53 PM81 °FSunny.10 mph60%30.05 "Hg10 mi
2:53 PM82 °FPassing clouds.8 mph60%30.06 "Hg10 mi
1:53 PM83 °FPassing clouds.7 mph53%30.08 "Hg10 mi
12:53 PM82 °FSunny.5 mph56%30.10 "Hg10 mi
11:53 AM79 °FSunny.6 mph67%30.11 "Hg10 mi
10:53 AM77 °FSunny.5 mph71%30.13 "Hg10 mi
9:53 AM70 °FSunny.5 mph84%30.14 "Hg10 mi
8:53 AM64 °FScattered clouds.5 mph97%30.15 "Hg8 mi
7:53 AM62 °FFog.5 mph100%30.14 "Hg0 mi
6:53 AM60 °FFog.No wind100%30.14 "Hg0 mi
5:53 AM60 °FFog.No wind100%30.12 "Hg0 mi
Weather by CustomWeather, © 2014

See weather overviewHow to use our weather pages